Theta_e
288 288 288 288 288 288 288 287 287 288 288 287 286 286 286 285 285 285 285 285 285 284 284 283 282 282 281 281 280 280 280 279 279 280 280 280 280 280 279 279 278 278 277 277 277 277 277 276 276 276 276 275 275 275 275 274 274 275 274 274 275 275
287 287 287 287 287 287 286 286 286 286 286 286 286 286 285 284 284 285 284 285 285 284 283 282 282 282 281 281 280 280 280 280 280 279 279 280 280 279 279 278 278 278 277 277 276 276 276 276 275 275 275 275 274 274 274 274 273 273 273 273 274 275
286 286 287 287 286 286 286 285 285 286 286 285 285 285 284 284 284 284 284 284 284 283 282 282 281 281 281 280 280 280 279 279 280 280 280 280 279 279 278 278 277 277 277 276 276 276 275 275 275 275 274 274 274 274 273 272 273 273 273 273 273 273
286 285 285 286 286 286 285 285 285 285 285 286 285 285 284 284 284 284 284 284 283 282 282 281 281 281 281 280 279 279 279 279 279 279 279 279 279 278 278 278 277 277 276 276 275 275 276 275 275 274 274 274 274 274 274 273 272 272 272 272 272 272
286 285 285 285 285 286 285 284 285 285 285 285 285 284 284 284 284 284 284 283 282 282 282 281 281 280 280 280 279 279 279 279 279 279 279 279 278 278 278 277 277 276 276 276 276 276 276 275 274 273 273 273 273 273 273 272 272 272 272 272 272 271
285 284 284 284 285 285 285 285 285 285 285 285 284 284 284 284 284 283 283 283 282 282 281 281 281 280 280 279 279 279 279 279 279 279 279 278 278 277 277 277 276 276 276 276 276 275 274 273 273 273 273 272 272 272 272 272 271 271 271 271 271 271
284 284 285 285 285 285 285 285 285 284 284 284 284 284 284 284 283 283 283 282 281 281 281 280 280 280 280 279 279 278 278 278 278 278 278 277 277 277 276 276 276 276 276 276 275 275 274 274 274 273 272 272 271 272 271 271 271 271 271 271 271 274
285 284 284 285 285 285 285 285 285 284 284 284 284 284 283 283 283 283 282 282 281 281 281 280 280 280 280 279 279 278 278 278 278 278 277 277 277 276 276 276 276 276 275 276 275 275 274 274 274 274 272 271 271 271 271 271 271 271 271 271 271 271
284 285 285 285 285 285 285 285 285 284 284 283 283 284 283 283 283 282 282 281 281 281 281 280 280 280 279 279 279 279 278 278 278 277 277 277 277 277 276 276 275 276 275 275 275 275 274 273 272 272 271 271 270 270 271 271 271 271 270 270 270 270
285 284 284 284 284 285 285 285 285 284 284 283 283 283 283 283 282 282 281 281 281 280 280 280 280 280 279 279 279 278 278 278 278 278 277 277 276 276 276 276 276 276 276 275 275 275 274 273 273 272 271 270 270 271 271 271 271 271 271 271 270 270
285 285 284 284 284 284 284 284 284 284 283 283 283 282 283 283 282 282 281 281 280 280 280 280 280 279 279 278 278 278 278 278 278 278 276 276 277 277 277 277 276 274 275 275 275 273 273 273 273 272 271 271 271 271 271 271 271 271 271 270 270 270
285 285 284 284 284 284 284 284 284 283 283 282 282 282 282 282 282 282 282 281 281 281 281 281 280 279 278 278 278 277 278 278 278 277 276 276 276 276 276 276 276 275 275 274 274 274 273 273 272 274 277 276 272 271 272 271 271 271 271 271 270 270
285 285 284 284 284 284 284 284 284 283 283 282 282 282 282 283 282 282 282 281 281 281 281 280 280 279 278 278 278 278 278 278 277 276 276 276 275 275 275 275 275 275 275 274 274 273 272 272 272 277 279 279 278 273 271 271 270 270 271 270 270 270
285 285 285 285 284 283 283 284 284 284 283 283 283 283 282 282 282 282 282 282 282 281 281 280 280 279 279 278 278 278 278 277 275 275 276 276 276 276 275 275 275 275 274 274 273 273 273 273 275 279 280 281 280 277 272 271 270 270 271 271 270 270
287 286 286 285 285 284 284 285 284 284 284 284 283 283 282 282 282 282 282 282 281 281 281 280 280 279 279 278 278 278 277 276 276 276 276 276 276 275 274 275 275 274 273 273 273 272 272 272 277 280 281 281 282 281 275 270 270 270 270 271 271 270
287 287 286 286 286 285 285 285 285 285 285 284 283 283 282 282 282 282 282 282 281 281 280 280 280 279 279 278 278 277 276 276 276 276 276 276 275 275 274 274 274 274 273 273 273 272 272 272 276 280 281 282 282 282 278 271 271 271 270 271 271 270
288 287 286 286 286 285 285 284 284 284 283 283 283 282 282 283 283 282 282 282 281 281 280 280 280 279 279 278 278 277 276 276 276 276 276 276 275 275 274 274 274 274 273 273 273 272 272 271 276 280 281 282 283 283 281 272 272 272 272 272 271 271
288 287 287 286 286 285 285 284 284 284 283 283 283 283 283 283 282 282 282 282 281 281 280 280 280 279 279 278 277 276 276 276 276 276 276 275 275 275 275 274 274 273 273 273 272 272 271 271 277 280 281 282 283 283 279 273 273 272 272 271 271 271
288 288 287 286 286 285 285 285 284 284 283 283 283 283 283 283 282 282 282 282 282 281 281 280 280 279 278 278 277 277 277 277 276 276 276 274 275 275 274 274 274 273 273 272 271 271 271 271 275 280 281 282 283 282 275 273 273 272 271 271 271 271
287 287 287 286 285 285 285 285 284 284 283 283 283 283 283 283 282 283 283 282 282 281 281 280 280 279 279 278 277 277 277 277 277 276 276 275 274 274 274 274 273 273 272 272 271 271 271 270 272 279 281 282 283 282 274 273 273 272 272 271 271 270
287 287 287 286 285 285 285 285 285 284 283 283 283 283 283 283 283 283 282 282 282 281 281 280 280 280 279 278 278 278 277 277 277 277 275 275 275 275 274 273 272 272 271 271 271 272 270 269 270 278 281 282 282 281 274 273 272 271 270 270 269 270
287 286 286 286 286 286 285 285 285 285 284 284 283 283 283 283 283 283 283 282 282 281 281 280 280 280 280 279 279 278 277 277 276 275 274 273 273 273 272 272 272 271 271 270 269 268 269 268 267 271 280 281 282 283 275 272 271 270 269 269 268 267
287 287 287 286 286 286 285 285 285 284 284 283 282 282 283 283 283 283 282 282 281 281 280 280 280 280 280 280 279 279 277 276 276 274 272 272 271 270 270 271 270 270 270 268 267 266 267 268 267 268 277 281 282 283 280 273 272 271 269 267 267 267
285 285 284 284 285 285 285 285 285 284 283 282 282 283 283 282 282 281 281 280 280 280 280 280 280 280 280 279 278 277 276 275 274 274 273 272 270 269 270 269 268 268 268 266 265 265 266 267 270 266 272 278 281 282 283 275 272 272 268 266 266 266
284 284 283 282 283 284 285 285 284 283 282 281 282 282 281 281 280 280 280 280 280 279 279 280 279 279 279 278 277 277 276 273 272 272 271 270 269 269 268 268 267 266 266 266 266 265 265 265 266 272 269 274 279 282 283 282 276 277 271 268 267 267
281 280 279 279 280 282 284 284 282 281 281 282 281 280 279 279 279 279 279 279 279 278 278 278 278 278 278 277 276 275 275 273 272 270 270 269 269 268 268 268 267 266 266 266 267 267 266 265 265 268 273 271 275 279 282 283 282 279 274 270 269 268
279 278 277 277 278 279 281 282 282 280 281 280 279 279 279 278 277 278 277 277 277 277 277 276 277 277 276 276 276 275 275 273 270 270 268 268 268 268 269 269 268 267 267 267 268 269 268 266 265 264 268 273 274 276 279 281 282 282 281 275 272 270
278 278 276 273 273 275 275 276 280 279 277 276 277 277 277 276 276 276 277 276 276 276 276 275 275 275 276 275 275 276 276 274 271 272 270 268 269 269 269 270 268 267 267 268 269 269 270 268 265 265 264 267 271 273 276 278 280 280 281 280 275 275
278 276 276 277 273 272 271 271 273 271 270 271 273 273 274 275 276 276 275 275 275 272 274 275 275 274 273 273 273 273 274 274 272 272 270 269 269 269 269 270 269 269 268 268 269 269 269 266 265 264 263 263 264 266 269 272 275 278 280 279 278 278
277 275 273 275 273 271 270 270 271 270 270 268 270 269 271 273 275 276 275 274 273 273 273 275 272 273 273 272 273 273 272 272 272 272 272 270 270 270 270 269 269 269 269 269 269 269 266 267 265 264 264 264 264 265 267 268 271 273 274 275 276 277
273 272 272 272 271 270 270 270 270 269 271 269 267 269 271 271 271 271 270 269 269 272 271 273 273 274 274 273 271 273 274 274 272 272 273 274 272 272 272 271 271 271 271 270 270 268 267 267 267 267 269 266 269 267 266 267 268 270 272 275 277 275
272 272 272 273 271 271 271 269 269 269 269 266 266 270 272 270 268 268 269 268 270 269 268 269 270 270 271 271 271 270 270 270 275 274 272 271 274 276 277 276 271 270 266 268 269 268 269 269 269 273 274 274 274 275 275 274 273 274 273 274 278 277
271 272 272 272 270 269 269 269 268 268 267 268 267 269 270 269 270 270 270 268 270 270 269 268 269 269 268 269 268 268 268 268 269 276 277 277 275 275 276 277 278 278 276 270 267 269 275 276 276 276 276 276 276 277 277 277 277 276 276 276 274 274
272 272 273 272 270 270 269 269 268 267 266 266 266 267 268 268 271 271 270 269 267 268 268 267 267 266 265 265 264 264 264 265 267 268 273 276 277 278 277 277 277 278 278 278 276 271 266 273 276 277 277 277 278 278 278 278 278 278 278 277 277 272
272 271 272 271 270 270 269 266 264 263 263 264 265 266 268 266 268 269 268 266 266 266 267 265 264 264 263 264 262 262 262 264 264 266 267 266 274 276 277 278 278 278 278 279 279 279 278 275 274 276 277 278 278 278 278 278 279 279 279 278 275 272
271 270 269 269 268 267 265 262 260 260 260 261 263 264 264 264 265 265 266 265 264 264 264 264 263 263 264 262 263 262 262 263 264 264 264 263 262 265 269 273 276 277 278 278 279 279 278 279 279 278 278 277 277 278 278 278 277 279 280 278 273 273
269 268 267 267 266 263 261 259 258 258 259 259 260 261 261 261 262 260 263 265 265 263 263 263 263 263 262 262 261 261 262 263 261 262 262 261 261 262 263 261 263 269 274 274 276 277 278 278 278 279 279 278 277 277 278 278 275 274 275 276 275 273
265 264 264 263 262 261 259 257 258 258 258 258 258 260 260 261 261 260 261 261 261 261 262 261 260 261 261 261 261 260 261 261 261 262 261 260 260 260 260 259 261 261 267 271 273 275 276 276 277 277 278 278 278 278 277 273 273 273 273 273 274 274
Wind_Speed
13 13 13 10 10 10 11 10 11 11 11 11 12 14 13 14 12 11 10 12 10 10 11 11 10 8 8 7 8 8 9 10 9 9 8 7 7 7 7 7 6 6 5 5 5 5 5 4 5 6 6 6 7 6 6 4 4 5 4 3 4 3
12 12 13 13 13 11 10 11 10 12 12 12 10 9 9 10 11 12 13 12 11 10 9 8 9 9 9 9 10 10 10 10 10 9 9 9 7 7 7 7 7 7 7 5 5 5 4 5 5 6 7 7 7 6 6 4 4 5 4 3 3 3
11 10 10 10 9 9 10 11 13 13 11 12 12 14 13 13 12 12 11 11 11 12 13 12 10 11 9 9 9 10 10 9 9 9 8 7 7 8 8 7 7 7 6 6 6 6 6 6 6 5 7 7 7 6 5 4 4 5 3 4 3 3
11 10 9 9 11 11 12 11 10 12 13 12 12 11 12 13 13 13 12 11 11 13 13 12 10 10 9 10 10 9 9 9 9 9 8 9 8 8 8 8 7 6 6 6 6 6 5 5 6 6 6 7 7 5 4 5 5 4 3 3 3 3
11 11 13 13 14 12 11 10 12 12 12 12 12 13 13 12 12 11 12 12 12 13 12 11 11 11 11 11 10 10 10 9 8 8 10 9 8 6 7 8 7 7 6 6 6 7 6 6 6 5 6 6 7 6 5 4 4 4 4 4 4 3
9 10 12 13 13 14 16 14 13 12 13 13 13 14 13 11 12 12 12 12 12 12 12 12 11 12 12 12 10 11 10 9 9 8 8 8 7 8 6 6 7 6 7 7 7 7 6 6 6 6 6 7 6 6 5 4 4 4 4 4 4 3
12 13 12 12 12 12 12 13 14 13 13 12 13 12 11 12 11 12 13 13 13 12 13 13 12 13 13 12 10 11 10 10 9 8 9 8 8 7 7 6 5 7 7 8 9 9 8 8 7 7 6 5 5 5 5 4 4 4 4 4 3 4
11 11 14 14 14 14 13 13 12 12 12 13 11 12 12 12 11 12 13 13 14 13 14 13 12 14 14 12 11 12 11 10 10 9 8 8 9 8 7 8 7 7 8 8 9 9 8 8 7 7 7 6 5 5 4 4 4 4 4 3 3 3
17 16 13 13 12 12 12 13 13 13 12 13 12 11 12 11 11 12 12 12 13 12 13 13 13 12 12 11 11 10 9 10 10 10 10 8 9 9 9 8 8 7 7 7 8 8 8 7 6 6 6 6 5 5 5 4 4 4 3 3 3 3
12 13 16 14 14 12 11 12 12 13 13 14 12 11 11 10 12 12 12 12 12 13 13 12 10 11 11 9 9 10 10 10 10 9 8 8 9 10 10 10 10 8 6 7 6 6 7 7 7 6 6 6 6 6 5 5 5 5 4 3 3 3
16 15 14 14 12 14 13 11 11 10 10 10 10 10 12 11 11 12 12 12 13 13 11 10 9 8 9 9 9 10 10 10 10 9 9 9 9 8 9 8 8 8 8 7 6 7 6 7 7 6 7 7 7 6 6 6 6 5 5 4 3 3
12 12 12 12 15 15 14 14 13 13 13 12 11 11 10 10 12 13 13 14 13 10 10 11 10 10 9 10 11 11 10 10 10 10 9 10 9 9 8 8 8 9 9 9 7 7 6 6 5 7 12 9 7 7 6 6 6 5 5 5 4 4
11 12 14 16 16 16 15 13 12 11 11 11 11 11 10 10 11 11 11 11 9 9 9 10 10 10 11 11 10 9 11 11 9 9 9 9 9 9 9 8 10 9 8 9 9 9 7 6 5 12 15 15 14 8 7 7 6 5 5 5 6 6
14 16 18 17 15 14 13 13 13 12 13 13 13 12 11 11 11 12 11 10 10 10 11 11 10 11 11 11 11 10 9 8 8 9 9 9 9 8 7 9 10 9 8 7 7 8 7 7 9 15 15 15 16 12 8 6 6 6 6 6 6 6
15 15 13 11 13 14 13 11 11 13 13 12 11 10 12 13 12 12 11 10 10 10 10 10 11 11 10 10 10 9 9 10 9 10 10 11 9 7 8 10 8 8 7 7 9 8 7 7 12 16 17 16 16 16 11 6 6 6 6 6 7 7
7 9 12 13 12 12 11 12 12 9 8 8 8 11 10 11 11 11 11 10 10 10 10 11 10 10 10 9 9 9 9 10 12 10 8 7 7 8 7 7 8 7 9 9 9 9 8 8 12 17 17 17 17 17 13 6 7 6 6 7 7 7
10 10 10 10 11 11 11 10 10 9 9 10 10 10 10 10 10 10 10 10 10 9 9 11 10 11 10 10 9 10 10 11 9 9 9 9 9 10 11 10 10 10 9 8 8 8 8 8 13 17 18 17 18 18 14 7 6 6 6 7 7 8
13 14 13 9 10 11 12 12 11 11 11 10 11 10 10 10 10 10 10 10 10 11 12 12 11 11 9 10 10 10 11 11 11 11 9 7 7 6 6 6 7 9 9 8 8 8 9 8 15 17 18 18 18 19 9 8 8 7 7 7 8 8
7 7 8 10 11 12 11 10 11 11 10 11 11 12 11 11 12 13 13 13 13 13 12 12 12 11 10 10 10 11 12 12 11 9 7 8 9 9 10 10 9 8 8 9 9 10 10 8 14 18 18 18 19 15 7 8 7 7 8 8 8 8
7 8 10 10 10 10 9 10 12 11 11 11 10 10 10 11 14 14 13 12 11 11 10 10 10 11 11 11 13 13 12 10 7 8 8 10 10 11 12 9 8 7 8 9 10 11 11 10 12 18 18 19 20 15 9 8 8 8 8 8 8 7
9 9 9 10 11 10 11 12 12 11 11 10 11 10 11 13 14 12 12 11 9 9 10 10 11 11 12 12 13 12 12 11 11 8 7 9 8 9 6 6 8 7 7 8 9 7 10 9 10 17 19 20 20 15 8 8 8 8 9 8 8 7
9 8 10 11 9 9 11 11 11 11 11 9 8 10 13 15 13 8 8 9 10 10 9 9 11 12 12 14 12 9 10 7 6 8 9 8 7 7 6 6 7 9 9 7 7 8 10 9 8 10 19 19 21 20 9 8 8 11 11 9 8 7
7 8 7 7 9 9 10 10 10 9 8 8 9 13 15 10 7 9 9 9 9 9 10 9 11 13 12 11 11 10 8 8 9 7 7 8 7 6 5 7 7 8 8 6 7 7 8 9 9 9 17 19 20 21 16 10 12 11 9 8 8 8
7 7 6 6 9 9 9 10 10 9 9 9 12 15 9 7 8 8 7 8 9 10 10 10 9 10 10 8 7 8 8 7 7 7 8 7 6 8 8 6 6 7 8 6 6 8 9 7 9 7 13 19 21 22 24 12 13 11 8 7 8 8
5 5 5 4 6 7 8 10 10 8 8 10 14 7 6 6 7 8 8 8 8 9 9 9 10 9 8 8 9 10 9 7 8 7 7 8 8 9 9 9 8 7 8 7 8 8 8 8 8 14 11 17 21 23 24 23 13 17 10 10 11 11
5 5 3 3 4 5 6 9 9 8 9 13 4 5 5 6 6 7 7 7 8 7 8 8 9 8 7 8 8 8 9 8 8 7 8 8 8 8 9 9 8 7 9 10 10 8 9 8 8 11 17 15 21 22 23 24 24 20 12 10 10 8
8 7 5 3 4 5 6 7 10 8 10 4 5 6 7 6 6 7 6 7 7 8 7 6 7 8 8 8 9 9 9 8 7 8 7 7 8 8 10 10 8 10 11 10 11 12 10 9 8 9 13 19 19 21 21 23 25 25 23 13 10 8
7 8 8 4 3 4 4 4 7 9 3 1 4 5 6 7 6 6 7 7 7 7 6 7 6 6 7 7 8 9 9 10 9 10 8 8 9 9 10 11 9 10 10 11 12 12 11 6 7 9 8 9 12 14 19 21 23 24 26 21 10 15
7 7 6 6 2 3 4 4 5 4 2 3 3 5 5 6 7 6 5 6 6 5 6 7 7 7 6 6 6 7 7 7 8 8 8 9 10 10 10 10 10 10 10 11 13 11 7 6 7 7 6 6 6 8 9 10 12 18 20 17 14 13
7 6 5 4 2 3 3 4 4 4 4 3 3 4 4 5 5 6 6 6 5 7 7 8 9 9 7 8 9 8 8 7 8 10 11 12 12 12 12 11 10 11 12 12 11 9 8 9 8 8 9 8 8 8 8 9 10 11 11 12 10 8
6 5 5 2 2 3 3 3 2 2 3 4 4 4 4 3 2 2 2 3 4 6 5 6 6 7 7 7 7 8 9 10 10 11 11 10 8 10 12 11 10 11 10 8 9 9 9 9 11 10 7 10 11 11 10 10 12 11 11 12 12 7
6 6 5 2 2 3 3 2 1 0 0 2 3 4 5 4 4 3 3 3 4 3 4 4 5 4 5 6 7 7 7 6 6 7 7 7 5 11 13 9 9 6 4 7 8 6 10 12 7 3 13 16 18 21 22 20 19 17 13 12 17 11
4 5 5 3 1 2 2 2 0 0 2 1 0 1 3 4 4 3 3 3 4 4 4 3 4 4 3 4 4 4 5 6 5 9 12 11 7 8 11 15 17 14 10 8 8 7 14 17 16 14 13 15 18 20 22 22 22 21 20 18 11 12
5 5 5 4 4 4 3 6 7 6 6 5 3 1 1 2 3 3 3 2 2 1 2 2 2 2 3 3 2 3 4 5 6 7 6 10 13 14 14 14 15 16 16 17 14 9 6 12 16 17 17 17 18 19 20 21 21 21 21 20 19 11
3 3 4 4 4 6 6 8 7 7 8 7 5 2 0 1 1 1 1 1 1 1 1 1 2 2 2 3 3 4 3 5 5 7 7 3 5 9 14 16 16 17 17 18 19 20 15 11 12 16 17 18 19 19 19 19 20 20 20 19 14 11
5 5 5 6 7 7 8 8 7 7 7 6 6 4 3 2 1 1 1 0 1 1 1 1 2 2 3 2 2 3 3 4 5 6 5 7 7 7 5 6 10 14 16 17 18 18 18 19 19 17 16 16 16 17 17 16 13 18 20 18 11 10
7 7 6 7 7 8 8 7 6 6 6 6 6 5 5 4 4 3 3 4 2 0 1 1 1 2 2 2 3 4 4 5 4 3 4 5 5 6 6 6 5 7 9 9 10 13 16 17 17 17 17 17 15 15 15 15 10 10 10 12 11 10
8 7 6 7 7 7 8 7 7 7 7 6 5 5 5 5 4 4 3 2 2 1 0 1 2 2 3 3 5 3 3 3 2 4 5 4 3 4 5 5 4 4 6 11 11 11 10 9 10 13 16 17 17 15 14 9 9 8 8 8 8 7
Wind_Direction
186 182 181 180 182 182 180 172 171 173 175 177 178 179 177 171 168 164 165 166 165 168 167 164 159 157 153 152 151 150 151 152 154 156 151 139 145 144 146 145 143 140 137 138 141 141 141 140 138 136 126 116 109 101 106 107 112 112 111 122 120 130
185 181 177 178 179 179 180 175 175 179 176 175 179 176 172 168 167 167 168 170 162 162 158 161 159 156 157 159 158 161 161 160 156 152 153 159 150 152 148 147 149 148 145 150 149 151 155 151 147 138 127 115 109 117 116 126 120 118 123 110 106 118
181 181 180 178 176 180 179 180 183 180 174 179 179 176 175 173 171 167 168 163 166 161 167 164 161 160 157 159 167 161 161 158 158 159 155 144 159 154 155 155 154 152 151 154 163 166 170 159 146 137 125 116 118 116 124 127 124 128 131 119 105 115
179 175 174 175 178 184 185 185 180 181 182 181 178 178 180 174 172 172 165 168 165 168 166 165 161 158 158 163 165 164 161 162 161 156 152 163 162 160 160 159 154 153 157 162 169 174 176 164 137 131 122 123 122 128 130 135 132 131 143 130 136 144
180 180 179 180 185 185 182 182 187 185 182 179 182 181 185 178 172 168 165 166 169 171 167 163 163 160 164 165 168 167 166 163 158 159 161 162 161 163 164 161 156 157 162 166 171 177 179 158 134 131 126 128 135 140 141 143 144 149 155 154 163 159
172 174 184 186 188 187 188 188 186 184 184 184 181 187 179 175 172 169 168 168 171 167 164 168 163 164 168 171 172 170 169 163 162 162 162 160 158 162 161 153 157 158 169 173 173 178 171 146 137 133 134 139 142 141 145 148 151 159 164 162 165 161
184 191 190 191 193 193 190 189 189 185 186 182 184 184 178 175 174 171 172 170 167 169 171 171 170 171 173 173 172 173 167 165 161 164 163 157 163 165 154 158 160 171 179 182 176 177 168 155 148 141 138 138 139 141 144 154 158 162 164 167 169 167
187 189 193 193 193 192 190 190 189 187 185 187 182 179 179 180 175 176 170 171 170 174 177 175 174 177 176 173 173 172 169 166 165 164 164 165 164 161 167 165 174 182 189 189 185 184 152 140 145 145 145 143 142 141 149 156 161 163 159 160 165 161
199 197 193 195 192 192 193 190 188 188 185 184 185 182 177 176 176 176 174 174 175 174 181 180 181 176 175 175 173 168 169 170 167 166 167 169 167 167 169 178 181 191 192 189 181 173 152 146 145 144 145 146 149 153 156 163 164 166 163 163 163 172
195 194 195 190 192 189 192 194 191 188 186 185 182 177 176 176 178 177 177 174 177 182 184 182 176 175 174 170 169 172 171 168 168 169 165 163 170 177 180 181 186 184 186 188 186 166 150 147 150 152 153 154 157 159 164 167 171 170 170 168 176 184
199 198 194 194 184 188 189 188 190 188 187 183 181 177 182 175 176 177 178 178 183 187 180 171 173 170 168 170 171 172 173 172 170 168 168 175 179 182 183 180 177 176 182 186 178 150 143 156 164 164 169 165 166 165 170 175 174 173 176 187 197 207
192 194 192 190 191 188 186 188 189 188 183 181 177 178 178 170 183 181 184 187 188 178 172 172 171 173 170 173 178 177 173 173 173 171 173 182 184 182 179 180 184 187 181 175 171 163 163 173 165 177 178 175 167 169 169 173 178 178 181 189 208 221
192 187 191 197 194 192 189 188 185 180 180 178 177 177 175 175 180 188 189 190 182 174 170 173 178 173 179 181 175 176 176 176 173 174 181 184 184 183 180 180 187 191 186 179 173 172 176 176 177 186 191 188 180 167 174 177 182 179 185 197 202 216
193 193 197 195 192 187 184 183 181 179 186 180 179 175 167 175 182 186 187 186 180 177 177 180 176 179 184 178 183 180 177 171 172 181 186 185 187 186 174 190 195 188 184 177 177 181 183 183 187 194 197 193 189 177 176 179 178 183 193 201 209 215
197 197 193 186 188 188 187 176 174 188 185 180 178 163 172 180 182 183 184 184 184 183 180 179 181 185 183 186 181 176 174 177 182 187 187 193 188 172 187 195 186 192 184 184 182 189 190 191 195 199 200 198 193 187 177 182 180 185 197 204 211 214
189 190 191 191 187 181 172 178 183 180 171 165 160 173 177 178 182 183 185 182 186 183 180 183 184 187 187 181 179 176 181 184 193 192 189 181 175 185 188 191 196 192 194 193 192 191 193 195 201 201 201 200 196 193 180 183 184 190 198 208 212 216
186 185 183 182 174 167 162 170 169 157 155 161 166 172 174 184 183 185 184 187 187 181 181 184 187 189 186 182 179 181 188 193 193 189 190 186 187 185 191 193 195 201 197 198 192 192 198 204 201 203 203 201 199 199 191 177 186 190 204 213 218 222
185 183 184 165 161 168 170 171 163 161 169 163 169 171 177 179 187 192 188 192 189 188 188 187 189 188 184 181 182 186 193 196 197 194 187 183 190 198 197 209 206 202 201 200 193 193 207 207 204 206 205 203 202 202 191 175 189 195 205 215 220 222
170 157 144 157 166 166 173 161 160 162 160 167 176 176 179 182 192 196 197 198 194 193 190 188 186 187 184 184 186 194 199 198 199 197 180 188 196 195 203 207 204 202 200 200 200 200 209 206 207 207 205 204 203 200 188 182 189 200 206 219 217 222
130 144 149 155 165 165 154 155 159 161 167 176 174 175 183 189 202 203 199 199 195 191 185 184 184 187 188 188 196 200 204 202 199 198 185 192 195 203 208 203 201 206 203 204 209 206 203 211 208 208 206 206 206 200 188 189 192 205 212 218 220 216
142 143 143 149 160 162 156 155 157 160 173 176 179 182 189 202 209 200 198 197 186 184 185 187 189 191 191 196 202 201 201 199 199 192 184 204 206 215 203 196 206 210 211 213 215 212 213 219 212 211 209 207 208 205 183 188 194 207 219 213 221 221
119 134 151 165 161 147 148 151 158 169 173 179 173 186 203 211 206 191 191 190 189 186 186 188 191 195 196 202 203 199 203 195 181 187 193 202 205 210 199 200 210 215 221 213 211 216 218 220 220 216 214 210 210 208 185 187 189 214 216 211 212 215
129 143 148 135 135 139 144 147 157 171 175 167 180 205 213 203 182 187 190 183 182 186 190 192 195 198 203 201 201 198 196 191 195 184 185 199 201 202 208 207 215 223 232 217 222 223 229 221 222 223 218 216 214 212 196 194 206 215 209 207 208 214
100 100 103 127 137 144 147 152 162 173 167 179 200 213 197 172 179 172 172 178 185 190 191 193 198 200 202 197 184 187 198 195 186 189 192 187 189 204 217 216 220 227 238 233 226 229 233 230 228 222 227 224 221 217 213 198 213 204 197 204 216 218
111 120 125 134 141 148 155 155 164 167 171 189 212 189 159 168 160 167 174 180 185 189 191 193 193 195 192 193 191 191 199 183 186 189 179 184 193 205 215 220 219 225 239 243 238 234 234 231 234 228 225 229 229 226 222 217 206 210 201 204 219 217
95 93 77 93 117 133 145 153 155 163 178 210 158 142 149 150 161 159 170 181 188 186 193 194 194 195 192 192 184 191 193 188 190 186 190 190 193 201 215 225 216 221 235 239 243 239 232 226 222 232 230 229 232 235 230 227 222 210 205 206 225 220
131 116 99 97 129 145 151 156 150 166 193 193 145 153 155 155 151 160 173 183 187 192 195 188 192 194 194 189 180 189 198 194 177 192 198 184 199 203 215 225 206 216 227 234 240 242 234 218 217 226 232 233 234 237 240 235 231 227 219 215 222 207
114 119 121 106 114 131 125 133 151 165 202 168 143 144 140 144 147 168 187 187 190 195 179 186 200 199 197 191 192 199 199 193 189 199 192 191 206 209 216 225 211 220 226 233 240 241 238 215 210 228 226 230 242 245 244 244 241 238 234 231 217 214
117 126 132 134 77 71 67 84 67 88 81 95 128 135 141 149 164 174 179 188 190 175 174 190 196 197 195 196 199 203 201 195 193 198 197 198 206 213 219 225 219 223 226 233 241 245 246 230 227 225 218 210 222 239 251 255 254 245 242 241 232 217
133 137 124 116 78 71 74 73 71 68 78 74 92 116 127 146 167 176 189 187 176 184 184 195 193 187 195 200 194 198 205 206 196 198 207 202 205 207 219 219 221 224 224 231 238 241 240 241 231 224 212 206 207 218 224 233 238 233 228 231 230 216
114 116 113 101 110 111 95 91 88 92 88 102 115 113 118 136 157 176 183 183 177 202 200 202 198 200 201 203 207 219 209 201 199 210 225 226 207 208 212 215 226 228 229 229 234 228 241 247 240 237 194 207 202 205 211 222 226 226 228 227 221 216
127 126 120 133 145 138 142 148 163 220 112 115 129 135 138 155 153 173 211 193 204 213 193 215 217 214 209 205 212 221 251 263 235 228 224 241 215 226 235 230 232 231 206 227 240 208 226 243 251 198 206 213 216 220 222 225 226 225 224 224 223 214
116 123 133 164 111 121 133 139 25 358 2 21 59 129 131 138 161 190 215 193 221 211 209 212 221 222 219 227 218 224 237 269 276 250 244 242 229 232 239 243 248 246 223 198 241 238 237 251 259 255 245 231 223 223 229 232 233 229 224 216 209 223
132 140 152 154 135 123 96 65 38 22 11 10 6 359 125 157 163 201 230 225 250 236 222 223 227 215 216 244 221 219 231 249 267 282 257 249 251 248 244 244 248 249 250 246 243 237 240 251 255 255 254 251 249 244 240 237 235 234 226 218 209 217
141 123 119 114 103 85 77 68 33 19 13 3 1 12 106 127 148 223 257 199 227 227 230 200 217 221 210 226 228 239 218 229 242 262 284 307 277 265 257 255 253 254 255 256 259 259 251 233 222 242 255 259 258 255 254 250 244 236 229 220 216 217
72 68 70 78 81 84 73 58 22 10 358 0 359 27 48 50 52 34 32 326 224 198 237 217 220 218 229 221 216 219 213 234 231 244 264 286 303 319 310 287 270 265 262 263 263 263 265 268 265 256 250 255 260 258 254 250 246 241 232 220 216 218
70 60 56 74 81 78 69 53 16 360 357 0 3 28 45 43 44 44 32 24 50 168 229 228 216 213 216 206 211 215 216 227 229 235 243 247 258 270 280 293 311 312 300 282 272 268 272 272 271 270 266 258 252 253 253 251 248 238 236 232 225 218
69 58 50 62 69 70 66 39 8 358 357 1 6 39 48 47 52 54 54 38 41 63 130 194 200 195 193 205 218 211 217 219 210 220 236 237 242 247 261 285 286 281 310 306 299 299 303 302 296 282 273 268 260 250 245 244 239 238 228 227 236 235